Weather History for Bartlesville, OK

Change the Weather History Date:

Wednesday, May 8, 2013

  Actual Average Record
Temperature  
Mean Temperature 67 °F -  
Max Temperature 82 °F 78 °F 92 °F (1962)
Min Temperature 52 °F 54 °F 38 °F (1976)
Cooling Degree Days 2    
Growing Degree Days 17 (Base 50)    
Moisture  
Dew Point 56 °F    
Average Humidity 71    
Maximum Humidity 97    
Minimum Humidity 45    
Precipitation  
Precipitation 0.09 in - - ()
Sea Level Pressure  
Sea Level Pressure 29.92 in    
Wind  
Wind Speed 5 mph (SSE)    
Max Wind Speed 18 mph    
Max Gust Speed 26 mph    
Visibility 10 miles    
Events Rain    
Averages and records for this station are not official NWS values.
T = Trace of Precipitation, MM = Missing Value Source: NWS Daily Summary

Daily Weather History Graph

Daily Weather History Graph

Search for Another Location

Airport:

Trip Planner

Search our weather history database for the weather conditions in past years. The results will help you decide how hot, cold, wet, or windy it might be!

Date:

Astronomy

May. 08, 2013 Rise Set
Actual Time 6:22 AM CDT 8:19 PM CDT
Civil Twilight 5:54 AM CDT 8:47 PM CDT
Nautical Twilight 5:19 AM CDT 9:22 PM CDT
Astronomical Twilight 4:42 AM CDT 9:59 PM CDT
Moon 5:29 AM CDT (5/8) 7:19 PM CDT (5/8)
Length of Visible Light 14h 53m
Length of Day
13h 56m
Waning Crescent, 2% of the Moon is Illuminated
May 8
Waning Crescent
May 9
New
May 17
First Quarter
May 24
Full
May 31
Last Quarter

Hourly Weather History & Observations

Time (CDT) Temp. Heat Index Dew Point Humidity Pressure Visibility Wind Dir Wind Speed Gust Speed Precip Events Conditions
12:53 AM 52.0 °F - 51.1 °F 97% 29.96 in 10.0 mi Calm Calm - N/A   Clear
1:53 AM 52.0 °F - 51.1 °F 97% 29.94 in 10.0 mi Calm Calm - N/A   Clear
2:53 AM 55.0 °F - 52.0 °F 89% 29.92 in 10.0 mi Calm Calm - N/A   Clear
3:53 AM 59.0 °F - 52.0 °F 78% 29.90 in 10.0 mi South 3.5 mph - N/A   Clear
4:53 AM 57.9 °F - 52.0 °F 81% 29.92 in 10.0 mi East 3.5 mph - N/A   Clear
5:53 AM 55.9 °F - 53.1 °F 90% 29.93 in 10.0 mi Calm Calm - N/A   Partly Cloudy
6:53 AM 60.1 °F - 53.1 °F 78% 30.00 in 10.0 mi North 6.9 mph - N/A   Overcast
7:53 AM 59.0 °F - 55.9 °F 90% 30.00 in 10.0 mi ENE 3.5 mph - 0.02 in   Overcast
8:53 AM 61.0 °F - 57.9 °F 90% 30.01 in 10.0 mi East 8.1 mph - 0.01 in   Scattered Clouds
9:53 AM 60.1 °F - 59.0 °F 96% 30.04 in 5.0 mi Calm Calm - 0.03 in Rain Light Rain
10:53 AM 63.0 °F - 60.1 °F 90% 30.04 in 10.0 mi Calm Calm - 0.02 in   Overcast
11:53 AM 68.0 °F - 61.0 °F 78% 29.99 in 10.0 mi East 10.4 mph - N/A   Partly Cloudy
12:53 PM 72.0 °F - 59.0 °F 64% 29.94 in 10.0 mi SSE 18.4 mph 25.3 mph N/A   Clear
1:53 PM 75.9 °F - 59.0 °F 56% 29.93 in 10.0 mi South 18.4 mph 26.5 mph N/A   Clear
2:53 PM 80.1 °F 81.2 °F 62.1 °F 54% 29.90 in 10.0 mi South 12.7 mph 20.7 mph N/A   Clear
3:53 PM 82.0 °F 82.1 °F 59.0 °F 45% 29.86 in 10.0 mi South 15.0 mph 26.5 mph N/A   Clear
4:53 PM 82.0 °F 82.4 °F 60.1 °F 47% 29.84 in 10.0 mi SSE 13.8 mph 26.5 mph N/A   Clear
5:53 PM 79.0 °F - 60.1 °F 52% 29.83 in 10.0 mi SSE 11.5 mph 21.9 mph N/A   Clear
6:53 PM 78.1 °F - 57.9 °F 50% 29.83 in 10.0 mi South 9.2 mph 19.6 mph N/A   Clear
7:53 PM 75.0 °F - 57.0 °F 53% 29.82 in 10.0 mi SSE 9.2 mph - N/A   Clear
8:53 PM 73.9 °F - 52.0 °F 46% 29.84 in 10.0 mi South 8.1 mph - N/A   Clear
9:53 PM 73.0 °F - 51.1 °F 46% 29.88 in 10.0 mi South 9.2 mph - N/A   Clear
10:53 PM 70.0 °F - 54.0 °F 57% 29.91 in 10.0 mi SW 4.6 mph - N/A   Clear
11:53 PM 66.9 °F - 61.0 °F 81% 29.90 in 10.0 mi SW 10.4 mph - 0.01 in Rain Light Rain